YPMQYWLM

Guest
Details From YPMQ - Port Macquarie
To YWLM - Williamtown
Flight Number -
Tags decoded
Created
Modified
Stats Distance 104 nm / 193 km
Max Altitude 0 ft / 0 m
Waypoints 5
Social Downloads 0
Likes 0
Share

Download

Looking for another format? Having issues loading an existing format? Contact us
Advertisement - Login to hide

Notes

Requested: YPMQ PMQ NICLA W182 WLM YWLM Unmatched points: W182

Route

YPMQ PMQ NICLA WLM YWLM

ID Type Via Altitude (ft/m) Position (lat/lon) Dist (leg/tot) Name
O YPMQ APT - 0 / 0 -31.43449 / 152.86585 - / 0 nm Port Macquarie
PMQ NDB - 0 / 0 -31.43556 / 152.86667 0 / 0 nm PORT MACQUARIE NDB
NICLA FIX - 0 / 0 -32.05139 / 152.00444 57 / 57 nm
WLM NDB - 0 / 0 -32.80335 / 151.82878 46 / 103 nm WILLIAMTOWN NDB
O YWLM APT - 0 / 0 -32.79588 / 151.83480 0 / 104 nm Williamtown

Altitude Profile

Advertisement - Login to hide

YPMQ

Details ICAO YPMQ (PQQ)
Name Port Macquarie Airport
Region Australia
Timezone Australia/Sydney (UTC+11.0)
Stats Elevation 15 ft / 5 m (AMSL)
Location -31.435900° 152.862000°
Runways 1
Magnetic Variation 12.255° E

METAR

YPMQ 051801Z AUTO 28003KT 5000 // SCT039 SCT074 SCT110 22/22 Q1004

Decode

TAF

Not found

Departure Runways

ID Width Length Bearing (true/mag) Surface Threshold Overrun Markings Lighting
03 144 ft / 44 m 5,911 ft / 1,802 m 29.60° / 17.35° ASPHALT 0 ft / 0 m 66 ft / 20 m PREC-APP EDGE THRESHOLD
21 144 ft / 44 m 5,911 ft / 1,802 m 209.60° / 197.34° ASPHALT 0 ft / 0 m 69 ft / 21 m PREC-APP EDGE THRESHOLD

YWLM

Details ICAO YWLM (NTL)
Name Williamtown
Region Australia
Timezone Australia/Sydney (UTC+11.0)
Stats Elevation 30 ft / 9 m (AMSL)
Location -32.796900° 151.836000°
Runways 1
Magnetic Variation 12.419° E

METAR

YWLM 051800Z AUTO 31005KT 9999 // NCD 20/20 Q1000

Decode

TAF

TAF AMD YWLM 051719Z 0518/0618 30008KT 9999 FEW035 FM060000 29014G24KT CAVOK FM061000 VRB03KT CAVOK PROB30 0518/0520 5000 BR

Decode

Destination Runways

ID Width Length Bearing (true/mag) Surface Threshold Overrun Markings Lighting
12 148 ft / 45 m 9,105 ft / 2,775 m 130.47° / 118.05° ASPHALT 0 ft / 0 m 912 ft / 278 m PREC-APP EDGE THRESHOLD CALVERT
30 148 ft / 45 m 9,105 ft / 2,775 m 310.46° / 298.04° ASPHALT 0 ft / 0 m 194 ft / 59 m PREC-APP EDGE THRESHOLD CALVERT

Approach Navaids

Runway Type Ident Frequency Range Bearing (true/mag) Slope Elevation
12 OM OM - - 130.44° / 118.02 ° - 31 ft / 9 m (AMSL)
12 GS IWM 110.50 MHz 10 nm / 19 km 130.88° / 118.46 ° 3.00° 31 ft / 9 m (AMSL)
12 MM MM - - 130.44° / 118.02 ° - 31 ft / 9 m (AMSL)
12 LOC-ILS IWM 110.50 MHz 18 nm / 33 km 130.68° / 118.26 ° - 31 ft / 9 m (AMSL)

Popular Alternatives